Location: Beverley
(50.2667°N, 107.9667°W)
Time: 02:55:39
(UTC+00:00)

JY1SAT - Visible Passes

Search period start: 26 June 2022 00:00
Search period end: 06 July 2022 00:00
Orbit: 566 x 585 km, 97.6° (Epoch: 25 June)

Date Brightness Start Highest point End Pass type
(mag) Time Alt. Az. Time Alt. Az. Time Alt. Az.
26 Jun ? 05:31:29 10° SW 05:34:46 23° W 05:38:07 10° NW visible
27 Jun ? 05:35:16 10° SW 05:38:27 21° W 05:41:39 10° NW visible
28 Jun ? 05:39:04 10° SW 05:42:06 20° W 05:45:10 10° NW visible
29 Jun ? 04:06:10 10° SSE 04:10:12 53° ENE 04:14:15 10° N visible
29 Jun ? 05:42:53 10° SW 05:45:46 18° W 05:48:40 10° NW visible
30 Jun ? 04:09:45 10° SSE 04:13:49 57° ENE 04:17:54 10° N visible
30 Jun ? 05:46:42 10° SW 05:49:25 17° W 05:52:08 10° NW visible
01 Jul ? 04:13:19 10° SSE 04:17:25 62° ENE 04:21:32 10° N visible
01 Jul ? 05:50:34 10° SW 05:53:04 15° W 05:55:36 10° NW visible
02 Jul ? 04:16:55 10° SSE 04:21:02 68° ENE 04:25:09 10° N visible
02 Jul ? 05:54:27 10° WSW 05:56:44 14° W 05:59:01 10° NW visible
03 Jul ? 04:20:30 10° SSE 04:24:38 74° ENE 04:28:47 10° N visible
03 Jul ? 05:58:23 10° WSW 06:00:23 13° W 06:02:23 10° WNW visible
04 Jul ? 04:24:05 10° SSE 04:28:14 80° ENE 04:32:24 10° NNW visible
04 Jul ? 06:02:22 10° WSW 06:04:02 12° W 06:05:43 10° WNW visible
05 Jul ? 04:27:41 10° SSE 04:31:50 87° ENE 04:36:00 10° NNW visible
05 Jul ? 06:06:27 10° WSW 06:07:41 11° W 06:08:55 10° WNW visible
